This is the latest recevied weather packets stored in our database for station/object ES0THZ-13. If no packets are shown the sender has not sent any weather packets the latest 10 day(s).
| Time | Temp. | Humidity | Pressure | Rain* | Wind** | Luminosity | Snow |
|---|---|---|---|---|---|---|---|
| 1777534661 | 10.56° C | 74% | 1019 hPa | - | - | - | - |
| 1777533621 | 9.44° C | 75% | 1019.7 hPa | - | - | - | - |
| 1777532581 | 8.33° C | 76% | 1019.4 hPa | - | - | - | - |
| 1777531405 | 7.22° C | 76% | 1019.9 hPa | - | - | - | - |
| 1777530346 | 6.67° C | 77% | 1019.4 hPa | - | - | - | - |
| 1777529206 | 6.67° C | 77% | 1020.7 hPa | - | - | - | - |
| 1777528136 | 6.67° C | 76% | 1018.3 hPa | - | - | - | - |
| 1777527031 | 6.67° C | 76% | 1019.9 hPa | - | - | - | - |
| 1777525976 | 6.11° C | 76% | 1019.6 hPa | - | - | - | - |
| 1777524866 | 6.11° C | 76% | 1019.7 hPa | - | - | - | - |
| 1777523816 | 5.56° C | 76% | 1019.5 hPa | - | - | - | - |
| 1777522756 | 5.56° C | 76% | 1018.7 hPa | - | - | - | - |
| 1777521666 | 5.56° C | 75% | 1020.4 hPa | - | - | - | - |
| 1777520541 | 5.56° C | 75% | 1019.7 hPa | - | - | - | - |
| 1777519461 | 5° C | 75% | 1019.2 hPa | - | - | - | - |
| 1777518486 | 5° C | 74% | 1020.1 hPa | - | - | - | - |
| 1777517351 | 5° C | 74% | 1019.4 hPa | - | - | - | - |
| 1777516276 | 5° C | 74% | 1020.4 hPa | - | - | - | - |
| 1777515226 | 5° C | 73% | 1020.4 hPa | - | - | - | - |
| 1777514186 | 5° C | 73% | 1020.7 hPa | - | - | - | - |
| 1777513121 | 5.56° C | 72% | 1019.1 hPa | - | - | - | - |
| 1777511976 | 5.56° C | 72% | 1020.9 hPa | - | - | - | - |
| 1777510866 | 5° C | 71% | 1019.9 hPa | - | - | - | - |
| 1777509856 | 5.56° C | 71% | 1019.2 hPa | - | - | - | - |
| 1777508731 | 5.56° C | 70% | 1021.3 hPa | - | - | - | - |
* Rain since midnight (hover to see other rain measurements)
** Current wind speed in m/s (hover to see current wind gust speed)